Yoho Park AWS, British Columbia

7:02 PM MST on December 05, 2016 (GMT -0700)
Yoho Park

Weather History for CWYL - September, 2013

Change the Weather History Date:

Monday, September 2, 2013

  Actual Average Record
Temperature  
Mean Temperature 57 °F -  
Max Temperature 77 °F - - ()
Min Temperature 37 °F - - ()
Degree Days  
Heating Degree Days 8    
Growing Degree Days 7 (Base 50)    
Moisture  
Dew Point 41 °F    
Average Humidity 64    
Maximum Humidity 95    
Minimum Humidity 22    
Precipitation  
Precipitation 0.00 in - - ()
Sea Level Pressure  
Sea Level Pressure 29.99 in    
Wind  
Wind Speed 4 mph ()    
Max Wind Speed 14 mph    
Max Gust Speed -    
T = Trace of Precipitation, MM = Missing Value Source: Averaged Metar Reports

Daily Weather History Graph

Daily Weather History Graph

Search for Another Location

Airport or City:

Trip Planner

Search our weather history database for the weather conditions in past years. The results will help you decide how hot, cold, wet, or windy it might be!

Date:

Astronomy

Sep. 02, 2013 Rise Set
Actual Time 7:00 AM MDT 8:28 PM MDT
Civil Twilight 6:25 AM MDT 9:03 PM MDT
Nautical Twilight 5:43 AM MDT 9:45 PM MDT
Astronomical Twilight 4:56 AM MDT 10:31 PM MDT
Moon 4:09 AM MDT (9/2) 6:52 PM MDT (9/2)
Length of Visible Light 14h 37m
Length of Day
13h 28m
Waning Crescent, 7% of the Moon is Illuminated
Sep 2
Waning Crescent
Sep 5
New
Sep 12
First Quarter
Sep 19
Full
Sep 26
Last Quarter

Hourly Weather History & Observations

Time (MDT) Temp. Windchill Dew Point Humidity Pressure Visibility Wind Dir Wind Speed Gust Speed Precip Events Conditions
12:00 AM 46 °F - 41 °F 75% 29.96 in - East 2.3 mph - -  
12:00 AM 45.5 °F - 40.6 °F 83% 29.96 in - East 2.3 mph - N/A   Unknown
1:00 AM 43.9 °F 42.3 °F 38.8 °F 82% 29.96 in - East 3.5 mph - N/A   Unknown
2:00 AM 41.9 °F 39.0 °F 38.3 °F 87% 29.97 in - ENE 4.6 mph - N/A   Unknown
3:00 AM 40.8 °F 38.8 °F 37.4 °F 88% 29.97 in - ENE 3.5 mph - N/A   Unknown
4:00 AM 39.2 °F 37.0 °F 36.7 °F 91% 29.97 in - East 3.5 mph - N/A   Unknown
5:00 AM 38.5 °F 36.1 °F 36.3 °F 92% 30.00 in - East 3.5 mph - N/A   Unknown
6:00 AM 38 °F - 36 °F 89% 30.03 in - East 3.5 mph - -  
6:00 AM 37.8 °F 35.3 °F 36.0 °F 93% 30.03 in - East 3.5 mph - N/A   Unknown
7:00 AM 37.9 °F 35.5 °F 36.5 °F 95% 30.06 in - East 3.5 mph - N/A   Unknown
8:00 AM 38.3 °F 34.8 °F 37.0 °F 95% 30.07 in - East 4.6 mph - N/A   Unknown
9:00 AM 43.9 °F 42.3 °F 40.8 °F 89% 30.08 in - East 3.5 mph - N/A   Unknown
10:00 AM 54.0 °F - 45.5 °F 73% 30.05 in - ESE 2.3 mph - N/A   Unknown
11:00 AM 61.5 °F - 47.3 °F 60% 30.01 in - West 3.5 mph - N/A   Unknown
12:00 PM 69 °F - 46 °F 33% 29.99 in - WSW 2.3 mph - -  
12:00 PM 69.4 °F - 46.2 °F 43% 29.99 in - WSW 2.3 mph - N/A   Unknown
1:00 PM 73.9 °F - 41.7 °F 31% 29.98 in - West 2.3 mph - N/A   Unknown
2:00 PM 74.1 °F - 35.4 °F 24% 29.96 in - East 4.6 mph - N/A   Unknown
3:00 PM 74.3 °F - 39.7 °F 29% 29.96 in - WSW 11.5 mph - N/A   Unknown
4:00 PM 75.6 °F - 37.9 °F 26% 29.96 in - WSW 12.7 mph - N/A   Unknown
5:00 PM 77.7 °F - 36.3 °F 22% 29.95 in - WSW 13.8 mph - N/A   Unknown
6:00 PM 72.3 °F - 38.5 °F 29% 29.96 in - West 11.5 mph - N/A   Unknown
7:00 PM 67.3 °F - 45.0 °F 45% 29.99 in - West 10.4 mph - N/A   Unknown
8:00 PM 63.5 °F - 47.1 °F 55% 29.99 in - WSW 3.5 mph - N/A   Unknown
9:00 PM 60.3 °F - 47.8 °F 64% 29.97 in - West 2.3 mph - N/A   Unknown
10:00 PM 57.9 °F - 45.0 °F 62% 29.98 in - WSW 2.3 mph - N/A   Unknown
11:00 PM 55.2 °F - 43.9 °F 66% 29.97 in - Calm Calm - N/A   Unknown